Regional Weather Roundup
Issued by NWS

Home | Current Version | Previous Version | Text Only | Print | Product List | Glossary Off
Versions: 1 2 3 4 5 6 7 8 9 10 11 12 13 14 15 16 17 18 19 20 21 22 23 24 25 26 27 28 29 30 31 32 33 34 35 36 37 38 39 40 41 42 43 44 45 46 47 48 49 50

000
ASUS44 KMEG 291100
RWRTN
TENNESSEE HOURLY STATE WEATHER ROUNDUP
NATIONAL WEATHER SERVICE MEMPHIS TN
600 AM CDT FRI APR 29 2016

TNZ002-004-019-021-049-052-054-088>092-291200-
WEST TENNESSEE

CITY           SKY/WX    TMP DP  RH WIND       PRES   REMARKS
MEMPHIS INTL   PTCLDY    65  50  58 E7        29.92F
NWS MEMPHIS      N/A     59 N/A N/A MISG        N/A
JACKSON        CLOUDY    55  52  89 CALM      29.98S
DYERSBURG      PTCLDY    57  52  82 E8        29.98F
UNION CITY     CLEAR     57  54  88 NE8       29.98S
LEXINGTON      CLEAR     52  52 100 CALM      29.99R
$$

TNZ008-025-027-028-033-062-065-066-291200-
NORTH MIDDLE TENNESSEE

CITY           SKY/WX    TMP DP  RH WIND       PRES   REMARKS
NASHVILLE      CLOUDY    57  52  83 CALM      30.02R
CLARKSVILLE    PTCLDY    57  50  77 CALM      30.02R
COOKEVILLE     CLEAR     48  48 100 CALM      30.02R
CROSSVILLE     CLOUDY    56  48  74 CALM      30.07R
$$

TNZ061-075-076-078-094-096-097-291200-
SOUTH MIDDLE TENNESSEE

CITY           SKY/WX    TMP DP  RH WIND       PRES   REMARKS
TULLAHOMA      CLEAR     52  52 100 CALM      30.04R
WINCHESTER     CLEAR     50  48  93 CALM      30.03R
MCMINNVILLE    CLEAR     52  52 100 CALM      30.03R
COLUMBIA       CLEAR    N/A N/A N/A CALM      30.00R
SHELBYVILLE    CLEAR     55  54  94 E3        30.03R
$$

TNZ017-018-042-046-047-291200-
NORTHEAST TENNESSEE

CITY           SKY/WX    TMP DP  RH WIND       PRES   REMARKS
TRI CITIES     PTCLDY    51  50  96 CALM      30.05R
$$

TNZ012-013-036-069-073-074-291200-
CENTRAL EAST TENNESSEE

CITY           SKY/WX    TMP DP  RH WIND       PRES   REMARKS
KNOXVILLE      NOT AVBL
OAK RIDGE      CLEAR     59  52  77 CALM      30.05R
GATLINBURG     SUNNY     54  52  94 CALM      30.04R
$$

TNZ083-085-099-291200-
SOUTHEAST TENNESSEE

CITY           SKY/WX    TMP DP  RH WIND       PRES   REMARKS
CHATTANOOGA    PTCLDY    58  54  86 CALM      30.03R
$$

SKY/WX REPORTED AS FAIR MEANS FEW OR NO CLOUDS BELOW
12 THOUSAND FEET.





USA.gov is the U.S. government's official web portal to all federal, state and local government web resources and services.